Location: Unspecified
(0.0000°N, 0.0000°E)
Time: 19:31:51
(UTC+00:00)

Hubble Space Telescope - Pass Details

Date: 17 October 2021
Orbit: 535 x 539 km, 28.5° (Epoch: 24 October)

Event Time Altitude Azimuth Distance (km) Brightness Sun altitude
Rises 18:56:39 0° 215° (SW) 2,667 5.0 -17.6°
Reaches altitude 10° 18:59:31 10° 194° (SSW) 1,777 3.7 -18.3°
Maximum altitude 19:02:17 17° 152° (SSE) 1,373 2.6 -19.0°
Enters shadow 19:02:28 17° 148° (SSE) 1,375 2.6 -19.0°
